Flag for Canada Weather past 2 weeks in Iqaluit, Nunavut Territory, Canada

Now
-17 °F

Partly sunny.


Feels Like: -31 °F
Forecast: -26 / -15 °F
Wind: 6 mph from North

Location: Iqaluit

Current Time: Jan 30, 2015 at 10:49:09 AM

Latest Report: Jan 30, 2015 at 10:00 AM


Visibility: 20 mi

Pressure: 29.96 "Hg

Humidity: 63%

Dew point: -26 °F

Location of IqaluitLocation

Historic Weather in Iqaluit — Graph

°F

Iqaluit temperature yesterday

Maximum temperature yesterday: 1 °F (at 12:00 AM)
Minimum temperature yesterday: -13 °F (at 4:00 PM)
Average temperature yesterday: -6 °F

Past Weeks' High & Low Weather Summary

 TemperatureHumidityPressure
High3 °F (Jan 28, 9:00 AM)85% (Jan 28, 8:00 AM)30.25 "Hg (Jan 28, 8:00 AM)
Low-45 °F (Jan 26, 4:00 AM)52% (Jan 26, 1:00 AM)29.47 "Hg (Jan 18, 1:00 AM)
Average-23 °F65%29.83 "Hg
* Reported Jan 15 9:00 AM — Jan 30 9:00 AM, Iqaluit, Weather by CustomWeather, © 2014

Note: Actual official high and low records may vary slightly from our data, if they occured in-between our weather recording intervals... More about our weather records

Advertising

Iqaluit weather history for previous 24 hours

 ConditionsComfort  
Time TempWeatherWind HumidityBarometerVisibility
9:00 AM
Jan 30
-17 °FPartly sunny.5 mph63%29.95 "Hg20 mi
8:00 AM-18 °FPassing clouds.5 mph62%29.94 "Hg20 mi
7:00 AM-18 °FPartly cloudy.5 mph62%29.93 "Hg15 mi
6:53 AM-18 °FPartly cloudy.6 mph62%29.93 "Hg15 mi
6:00 AM-20 °FSnow flurries. Passing clouds.3 mph62%29.92 "Hg15 mi
5:00 AM-17 °FSnow flurries. Passing clouds.2 mph63%29.91 "Hg15 mi
4:00 AM-18 °FSnow flurries. Passing clouds.5 mph62%29.90 "Hg15 mi
3:00 AM-15 °FSnow flurries. Clear.3 mph63%29.89 "Hg15 mi
2:00 AM-11 °FSnow flurries. Clear.3 mph63%29.88 "Hg15 mi
1:00 AM-9 °FSnow flurries. Clear.7 mph64%29.86 "Hg6 mi
12:00 AM-6 °FSnow flurries. Clear.3 mph59%29.84 "Hg5 mi
11:00 PM
Jan 29
-6 °FSnow flurries. Clear.5 mph70%29.81 "Hg5 mi
10:00 PM-6 °FSnow flurries. Ice fog.5 mph70%29.80 "Hg3 mi
9:00 PM-8 °FSnow flurries. Ice fog.5 mph77%29.78 "Hg3 mi
8:00 PM-8 °FSnow flurries. Partly cloudy.5 mph77%29.76 "Hg3 mi
7:00 PM-8 °FSnow flurries. Partly cloudy.7 mph77%29.75 "Hg3 mi
6:00 PM-9 °FSnow flurries. Passing clouds.5 mph77%29.72 "Hg10 mi
5:00 PM-9 °FSnow flurries. Partly cloudy.3 mph70%29.71 "Hg10 mi
4:00 PM-13 °FSnow flurries. Overcast.2 mph69%29.70 "Hg6 mi
3:00 PM-11 °FSnow flurries. Partly sunny.No wind70%29.69 "Hg10 mi
2:00 PM-9 °FSnow flurries. Scattered clouds.No wind77%29.67 "Hg10 mi
1:00 PM-8 °FSnow flurries. Partly sunny.No wind70%29.65 "Hg10 mi
12:00 PM-6 °FSnow flurries. Partly sunny.2 mph70%29.65 "Hg10 mi
11:00 AM-8 °FSnow flurries. Broken clouds.No wind77%29.64 "Hg10 mi
10:00 AM-6 °FSnow flurries. Partly sunny.3 mph70%29.63 "Hg15 mi
Weather by CustomWeather, © 2014

See weather overviewHow to use our weather pages